ECAMSAT (43019 NORAD) Tracking and Keplerian Element Data.

This shows tracking and keplerian element data for the satellite.

Feedback or suggestion? Click here.

Epoch Orbit10487
Epoch Day80.39376038
Epoch Year2018
Argument of Perigee199.8756
Mean Anonmoly160.2059
Mean Motion15.56098634
Decay Rate5.567E-05
L11 43019U 98067NG 18080.39376038 .00005567 00000-0 85065-4 0 9994
L22 43019 51.6390 95.2275 0004535 199.8756 160.2059 15.56098634104875

Live tracking and technical data element details for ECAMSAT (NORAD 43019). ECAMSAT can be tracked NOW for your location showing map with azimuth and elevation plus other details from your city location.

Tracking and technical details about the satellite: track the satellite on the map from your city or location and see movement details for azimuth, elevation, latitude, longitude, range, height, and movement on the map or in text.

Es'hailsat 2 (coming in 2018)

IsCatalogInMostPopularTable: catalog: 43019, numindb: 58
Update: records affected: 1

GetName: 43019 ECAMSAT

Hit Count: updated at: Thu, 22 Mar 2018 13:44:15 GMT